Location: Cartersville
(42.9944°N, 93.0830°W)
Time: 22:40:33
(UTC+00:00)

Daily predictions for brighter satellites

Satellite Brightness Start Highest point End
(mag) Time Altitude Azimuth Time Altitude Azimuth Time Altitude Azimuth
Cosmos 1733 3.6 12:03:32 10° SSE 12:04:57 24° E 12:06:10 12° NE
Helios 1A Rocket 2.5 12:01:58 10° S 12:05:12 50° W 12:06:52 25° NW
Cosmos 2082 Rocket 3.3 12:06:06 22° WNW 12:06:44 22° NW 12:11:05 10° N
Cosmos 2026 Rocket 3.9 12:01:15 10° SSW 12:07:11 57° W 12:13:11 10° N
SL-16 R/B 2.2 12:02:18 14° NNW 12:07:13 69° WSW 12:12:49 10° SSE
Cosmos 1626 Rocket 4.0 12:03:26 10° S 12:07:48 65° E 12:12:11 10° NNE
Cosmos 1937 Rocket 4.1 12:08:11 21° NW 12:10:53 35° WSW 12:15:28 10° SSW
Cosmos 1892 Rocket 4.1 12:07:57 10° SW 12:11:57 35° WNW 12:16:01 10° N
ATLAS 3B R/B 4.4 12:10:17 10° NNW 12:16:52 28° NNE 12:23:13 10° E
SL-4 R/B 2.8 12:17:39 17° NNW 12:19:24 28° NNE 12:22:12 10° E
ARIANE 5 R/B 4.1 12:15:16 10° NNE 12:20:10 39° E 12:25:01 10° SSE
IRIDIUM 104 4.3 12:19:47 10° S 12:25:00 86° W 12:30:15 10° N
Cosmos-2242 3.2 12:21:31 10° NNW 12:25:35 48° W 12:29:37 10° SSW
COSMO-SKYMED 1 3.3 12:22:17 10° SSW 12:25:54 30° W 12:29:23 11° NW
Cosmos 2278 3.9 12:25:25 10° NW 12:30:52 50° WSW 12:36:17 10° S
Cosmos 1092 Rocket 4.3 12:27:09 10° SW 12:33:04 42° WNW 12:38:58 10° N
Cosmos 1553 Rocket 4.0 12:26:55 10° N 12:33:18 77° W 12:39:42 10° S
BREEZE-M DEB (TANK) 2.8 12:31:04 16° WNW 12:33:36 83° NNE 12:41:51 10° ESE
IRIDIUM 114 4.3 12:28:57 10° S 12:34:08 71° W 12:39:23 10° N
Cosmos 1814 Rocket 4.0 12:29:13 10° SSW 12:34:23 64° WNW 12:39:39 10° NNE
CZ-2D R/B 3.6 12:32:42 10° NNE 12:35:50 55° E 12:38:55 10° S
ATLAS 2AS CENTAUR R/B 3.2 12:32:26 10° SSW 12:39:26 67° ESE 12:46:17 10° NE
CBERS-1 4.0 12:34:51 10° N 12:39:54 63° WNW 12:44:54 10° SSW
CORIOLIS 4.3 12:34:38 10° NNE 12:40:03 84° ESE 12:45:27 10° SSW
BREEZE-M DEB (TANK) 3.7 12:38:24 14° WNW 12:40:33 37° N 12:46:28 10° ENE
COSMOS 2455 4.4 12:38:24 12° WNW 12:41:22 17° WSW 12:44:59 10° SW
Cosmos 405 Rocket 2.5 12:38:35 10° SSW 12:41:43 45° WNW 12:44:53 10° N
Cosmos 1812 Rocket 3.9 12:37:39 10° N 12:41:58 68° E 12:46:16 10° SSE
CZ-3 R/B 4.5 12:39:19 10° WSW 12:42:45 11° WSW 12:45:28 10° SW
IRIDIUM 103 4.4 12:38:11 10° SSW 12:43:19 58° W 12:48:30 10° N
Cosmos 1602 Rocket 3.6 12:41:38 10° S 12:46:05 88° E 12:50:32 10° N
Cosmos 2058 Rocket 4.1 12:44:35 10° NNW 12:48:16 26° W 12:51:54 10° SW
Cosmos 1707 3.3 12:47:01 10° N 12:50:04 46° E 12:53:05 10° SSE
MOS 1 Rocket 4.0 12:45:51 10° NNE 12:51:13 71° E 12:56:27 10° S
IGS 5A 4.1 12:51:52 10° N 12:55:24 30° WNW 12:58:55 10° SW
Thor Agena Rocket 3.5 12:51:02 10° N 12:56:02 65° WNW 13:01:00 10° SSW
AQUARIUS 4.4 12:53:37 10° NNE 12:58:03 77° ESE 13:02:27 10° S
NOSS 3-1 (A) 4.4 12:51:45 10° NW 12:59:05 57° WSW 13:07:57 10° SSE
Cosmos 2333 Rocket 2.9 12:54:01 10° NW 12:59:11 35° WSW 13:04:19 10° SSW
Cosmos 1833 4.3 12:54:19 10° SW 12:59:52 59° WNW 13:05:31 10° NNE
Cosmos 2360 Rocket 2.5 12:55:24 10° NW 13:00:49 50° WSW 13:06:11 10° S
USA 234 4.3 12:56:45 10° E 13:02:30 34° NNE 13:08:16 10° NW
Gbstr 26 Del rocket 3.8 23:00:51 10° SSW 23:04:42 33° SE 23:08:10 10° ENE
Iridium 51 3.9 23:01:46 10° S 23:04:51 78° W 23:08:03 10° N
Cosmos 1634 Rocket 4.2 23:00:02 10° S 23:06:14 82° W 23:12:27 10° N
UNK 4.1 23:02:34 10° NNE 23:06:58 45° E 23:11:18 10° S
Landsat 7 4.4 23:04:09 10° SE 23:08:17 33° ENE 23:12:26 10° N
NOSS 2-2 (E) 3.1 23:06:00 10° SW 23:09:31 64° NW 23:12:32 10° NNE
Cosmos 1570 Rocket 4.0 23:04:11 10° NNW 23:09:34 81° ENE 23:14:51 10° SSE
Cosmos 836 Rocket 4.5 23:06:52 10° NNW 23:12:08 77° ENE 23:17:23 10° SSE
Lacrosse 4 Rocket 3.8 23:12:45 10° W 23:15:21 16° NW 23:17:58 10° N
Cosmos 1656 3.8 23:09:58 10° SSW 23:15:34 84° WNW 23:21:18 10° NNE
Cosmos 1486 Rocket 4.0 23:10:45 10° S 23:15:54 72° ESE 23:21:09 10° NNE
Cosmos 1315 Rocket 4.3 23:12:37 10° SW 23:16:09 35° WNW 23:19:43 10° N
BREEZE-M DEB (TANK) 4.4 23:13:50 10° NW 23:16:31 27° N 23:23:07 10° ENE
Cosmos 1743 2.6 23:14:55 10° N 23:18:03 43° E 23:21:09 10° SSE
Cosmos 1867 4.3 23:14:58 10° NNW 23:19:51 32° NE 23:24:42 10° ESE
Cosmos 2279 Rocket 4.0 23:14:12 10° S 23:20:24 89° E 23:26:40 10° N
Cosmos 773 Rocket 4.0 23:19:52 10° NNW 23:25:06 79° ENE 23:30:21 10° SSE
CENTAUR R/B 3.9 23:20:37 10° W 23:25:42 29° NNW 23:31:51 10° NNE
Cosmos 1825 Rocket 4.5 23:22:38 10° NNE 23:26:18 26° ENE 23:29:55 10° SE
Cosmos 2098 Rocket 2.9 23:24:19 10° S 23:28:13 86° E 23:32:54 10° N
Cosmos 1758 Rocket 3.5 23:24:29 10° N 23:28:48 88° W 23:33:04 10° S
Cosmos 2297 Rocket 2.2 23:23:17 10° NNW 23:28:56 67° ENE 23:34:34 10° SE
Cosmos 2151 3.0 23:26:22 10° N 23:30:27 54° E 23:34:32 10° SSE
IRIDIUM 106 4.4 23:25:19 10° N 23:30:28 56° E 23:35:34 10° SSE
Cosmos 990 Rocket 4.5 23:30:00 10° S 23:34:43 39° ESE 23:39:28 10° NE
ARIANE 5 R/B 2.5 23:31:05 10° SSE 23:36:02 62° ENE 23:41:06 10° N
IRS-P3 4.4 23:32:54 10° SE 23:37:57 46° ENE 23:43:01 10° N
USA 238 DEB 4.4 23:33:06 10° SSE 23:38:06 28° ESE 23:42:20 14° ENE
USA 238 4.4 23:33:14 10° SSE 23:38:13 28° ESE 23:42:24 14° ENE
Cosmos 2180 Rocket 4.5 23:32:30 10° S 23:38:37 87° E 23:44:48 10° N
IGS 5A 4.4 23:37:37 10° S 23:41:26 48° W 23:45:18 10° NNW
Cosmos 1933 3.3 23:42:37 10° S 23:46:22 55° E 23:50:07 10° NNE
Cosmos 2208 Rocket 4.4 23:41:15 10° NNW 23:46:23 67° WSW 23:51:31 10° S
Meteor 1-25 Rocket 4.3 23:40:59 10° N 23:46:44 58° ENE 23:52:24 10° SSE
SPOT 1/Viking Rocket 4.0 23:42:17 10° SE 23:47:02 38° ENE 23:51:48 10° N
Cosmos 1607 3.9 23:41:25 10° NNW 23:47:41 78° NE 23:53:59 10° SE
BlueWalker 3 2.5 23:44:20 10° WNW 23:47:53 55° SW 23:51:26 10° SE
SAR-Lupe-3 4.2 23:47:41 26° ENE 23:48:32 35° E 23:50:53 10° S
SJ-12 3.6 23:45:11 10° SSE 23:48:55 72° ENE 23:52:43 10° N
USA 215 4.5 23:44:52 13° NE 23:49:14 26° N 23:54:27 10° NW
CZ-4C R/B 3.0 23:42:52 10° NNW 23:49:56 67° NE 23:58:38 10° SE
Cosmos 1980 Rocket 3.0 23:47:18 10° SSE 23:52:08 30° ESE 23:55:10 19° ENE
Meteor 1-5 Rocket 4.4 23:48:04 10° N 23:53:08 41° ENE 23:58:16 10° SE
Cosmos 1076 Rocket 4.2 23:50:19 10° N 23:54:12 32° ENE 23:58:04 10° SE
AQUARIUS 4.0 23:50:50 10° SSE 23:55:13 72° ENE 23:59:37 10° N
Cosmos 2084 Rocket 3.4 23:51:05 10° NNW 23:55:14 56° NE 23:59:22 10° SE
